Flag for Sudan Weather past 2 weeks in Khartoum, Sudan

Now
N/A

Sunny.


Feels Like: N/A
Forecast: 65 / 88 °F
Wind: 14 mph from Northwest

Location: Khartoum Airport

Current Time: Dec 20, 2014 at 4:23:15 PM

Latest Report: Dec 20, 2014 at 1:30 PM


Visibility: 10 mi

Pressure: 29.95 "Hg

Humidity: N/A

Dew point: N/A

Location of KhartoumLocation

Historic Weather in Khartoum — Graph

°F

Khartoum temperature yesterday

Maximum temperature yesterday: 93 °F (at 3:00 PM)
Minimum temperature yesterday: 68 °F (at 7:00 AM)
Average temperature yesterday: 81 °F

Past Weeks' High & Low Weather Summary

 TemperatureHumidityPressure
High99 °F (Dec 11, 2:00 PM)44% (Dec 6, 6:00 AM)30.04 "Hg (Dec 6, 6:00 AM)
Low64 °F (Dec 15, 8:00 AM)10% (Dec 11, 3:00 PM)29.77 "Hg (Dec 8, 4:30 PM)
Average81 °F26%29.92 "Hg
* Reported Dec 5 1:30 PM — Dec 20 1:30 PM, Khartoum, Weather by CustomWeather, © 2014

Note: Actual official high and low records may vary slightly from our data, if they occured in-between our weather recording intervals... More about our weather records

Advertising

Khartoum weather history for previous 24 hours

 ConditionsComfort  
Time TempWeatherWind HumidityBarometerVisibility
1:30 PM
Dec 20
N/ASunny.14 mphN/A29.95 "Hg10 mi
1:00 PM86 °FSunny.12 mph25%29.95 "Hg10 mi
12:30 PMN/ASunny.12 mphN/A29.98 "Hg10 mi
12:00 PM84 °FSunny.8 mph27%29.98 "Hg10 mi
11:00 AM82 °FSunny.13 mph26%30.01 "Hg10 mi
10:30 AMN/ASunny.9 mphN/A30.01 "Hg10 mi
10:00 AM77 °FSunny.10 mph32%30.01 "Hg10 mi
9:30 AMN/ASunny.13 mphN/A30.01 "Hg10 mi
9:00 AM73 °FSunny.13 mph33%29.98 "Hg10 mi
8:30 AMN/ASunny.10 mphN/A29.98 "Hg10 mi
8:00 AM70 °FSunny.12 mph29%29.98 "Hg10 mi
7:30 AMN/ASunny.13 mphN/A29.95 "Hg10 mi
7:00 AM70 °FClear.13 mph29%29.95 "Hg10 mi
6:00 AM68 °FClear.9 mph35%29.95 "Hg10 mi
5:30 AMN/AClear.12 mphN/A29.92 "Hg10 mi
4:30 AMN/AClear.10 mphN/A29.92 "Hg10 mi
4:00 AM73 °FClear.12 mph27%29.92 "Hg10 mi
3:30 AMN/AClear.9 mphN/A29.95 "Hg10 mi
3:00 AM75 °FClear.8 mph29%29.95 "Hg10 mi
2:30 AMN/AClear.8 mphN/A29.95 "Hg10 mi
2:00 AM75 °FClear.8 mph29%29.95 "Hg10 mi
1:30 AMN/AClear.8 mphN/A29.95 "Hg10 mi
1:00 AM77 °FClear.8 mph30%29.95 "Hg10 mi
12:30 AMN/AClear.8 mphN/A29.95 "Hg10 mi
12:00 AM79 °FClear.6 mph26%29.98 "Hg10 mi
11:30 PM
Dec 19
N/AClear.9 mphN/A29.98 "Hg10 mi
11:00 PM79 °FClear.6 mph26%29.98 "Hg10 mi
10:30 PMN/AClear.N/AN/A29.98 "Hg10 mi
10:00 PM81 °FClear.3 mph24%29.98 "Hg10 mi
9:30 PMN/AClear.5 mphN/A29.98 "Hg10 mi
9:00 PM84 °FClear.8 mph20%29.98 "Hg10 mi
8:00 PM82 °FClear.6 mph19%29.95 "Hg10 mi
7:30 PMN/AClear.3 mphN/A29.92 "Hg10 mi
7:00 PM84 °FClear.6 mph20%29.92 "Hg10 mi
6:00 PM91 °FSunny.8 mph14%29.92 "Hg10 mi
5:00 PM93 °FSunny.7 mph16%29.92 "Hg10 mi
4:00 PM93 °FSunny.6 mph12%29.92 "Hg10 mi
Weather by CustomWeather, © 2014

See weather overviewHow to use our weather pages